www.pogodaiklimat.ru

Погода и климат >> Архив погоды >> Индонезия >> Сентани


ПОГОДА в Сентани

  • Прогноз погоды в Сентани
  • Монитор погоды в Сентани

АРХИВ ПОГОДЫ в Сентани

Время (UTC), дата Ветер
(напр.,м/с)
 
Видим.   Явления Облачность Т
(С)
Тd
(С)
f
(%)
Тe
(С)
Тes
(С)
Комфортность P
(гПа)
Po
(гПа)
Тmin
(С)
Tmax
(С)
R
(мм)
R24
(мм)
S
(см)
00 14.06 З 2 10 км 5/3 360 м
[Cu Sc Ac trans Ci sp]
+28.3 +24.7 81 +40 +47 очень
душно
1009.8 1000.2 +24.4 0.3
03 14.06 ЮВ 4 10 км 5/3 400 м
[Cu med, cong Ac trans Ci sp]
+32.0 +23.0 59 +42 +49 опасность
перегрева
1007.5 998.0
06 14.06 ЮВ 4 10 км 8/4 330 м
[Cb cap Ac cast Ci sp]
+31.7 +24.8 67 +45 +47 опасность
перегрева
1005.4 996.2
09 14.06 З 3 10 км 4/3 400 м
[Cu med, cong Ac trans Ci sp]
+28.1 +23.9 78 +39 +39 очень
душно
1007.0 997.5
12 14.06 штиль 0 10 км 4/3 400 м
[Cu med, cong Ac trans Ci sp]
+26.5 +24.2 87 +37 +37 очень
душно
1009.5 999.9 +33.1
15 14.06 штиль 0 10 км 8/4 400 м
[Cu med, cong Ac trans Ci sp]
+25.4 +22.3 83 +33 +33 очень
душно
1009.4 999.8
18 14.06 штиль 0 10 км 5/3 400 м
[Cu med, cong Ac trans Ci sp]
+24.7 +22.4 87 +32 +32 очень
душно
1007.9 998.3
21 14.06 штиль 0 10 км 6/4 300 м
[Frnb Ac trans Ci sp]
+25.1 +22.4 85 +33 +33 очень
душно
1009.4 999.8
00 15.06 ЮВ 3 10 км 6/3 400 м
[Cu Sc Ac trans Ci fib]
+27.8 +23.4 77 +38 +43 очень
душно
1010.1 1000.5 +24.0
03 15.06 В 2 10 км 6/4 400 м
[Cu Sc Ac trans Ci sp]
+31.8 +23.6 62 +43 +53 опасность
перегрева
1008.0 998.4
06 15.06 З 3 10 км 6/3 400 м
[Cu med, cong Ac trans Ci sp]
+30.6 +24.2 69 +43 +46 опасность
перегрева
1006.0 996.5
09 15.06 СЗ 3 10 км 8/3 400 м
[Cu med, cong Ac trans Ci sp]
+28.3 +24.1 78 +39 +39 очень
душно
1007.3 997.7
12 15.06 З 2 10 км 8/3 400 м
[Cu med, cong Ac trans Ci sp]
+26.6 +23.7 84 +36 +36 очень
душно
1009.9 1000.4 +33.0
15 15.06 штиль 0 10 км 9/3 400 м
[Cu med, cong Ac trans Ci sp]
+26.0 +23.1 84 +35 +35 очень
душно
1009.5 999.9
18 15.06 штиль 0 10 км 9/3 300 м
[Frnb As op Ci sp]
+25.5 +24.1 92 +35 +35 очень
душно
1008.0 998.6
21 15.06 штиль 0 10 км {дождь} 9/3 300 м
[Frnb As op Ci sp]
+24.7 +22.9 90 +33 +33 очень
душно
1009.0 999.8 2
00 16.06 Ю 2 10 км 8/4 360 м
[Cu med, cong Ac trans Ci sp]
+28.9 +24.2 76 +40 +45 очень
душно
1009.7 1000.1 +24.6 2
03 16.06 В 3 8000 м осадки на расстоянии 9/4 360 м
[Cu med, cong Ac trans Ci sp]
+30.7 +23.9 67 +42 +48 опасность
перегрева
1008.1 998.5
06 16.06 ЮЗ 2 10 км слаб. ливневой дождь, в посл. час гроза 10/10 360 м
[]
+26.3 +24.0 87 +36 +36 очень
душно
1007.2 997.7 2
09 16.06 З 2 8000 м в посл. час дождь 9/4 360 м
[Cu med, cong Ac As Cs]
+25.8 +24.2 91 +36 +36 очень
душно
1008.9 999.3 7
12 16.06 З 2 5000 м слаб. дождь {гроза} 10/4 300 м
[Frnb As op]
+25.0 +23.8 93 +34 +34 очень
душно
1011.0 1001.4 +31.8 5
15 16.06 штиль 0 5000 м слаб. дождь 10/4 300 м
[Frnb As op]
+24.4 +23.2 93 +33 +33 очень
душно
1010.1 1000.6 8
18 16.06 штиль 0 6000 м в посл. час дождь 10/4 300 м
[Frnb As op]
+24.0 +23.0 94 +32 +32 очень
душно
1009.1 999.6 0.7
21 16.06 штиль 0 8000 м 9/4 300 м
[Frnb Ac As Cs]
+24.0 +22.6 92 +31 +32 очень
душно
1009.3 999.7
00 17.06 ЮЗ 1 10 км 8/3 360 м
[Frnb Ac trans Ci sp]
+26.2 +23.9 87 +36 +42 очень
душно
1010.5 1000.9 +23.4 0.1
03 17.06 ЮВ 2 10 км 8/4 400 м
[Cu med, cong Ac trans Ci sp]
+29.4 +24.3 74 +41 +48 опасность
перегрева
1009.2 999.6
06 17.06 З 3 10 км 8/4 360 м
[Cb calv Ac trans Ci sp]
+28.4 +24.8 81 +41 +43 опасность
перегрева
1007.5 998.0
09 17.06 штиль 0 9000 м осадки на расстоянии 9/4 360 м
[Cb calv Ac trans Cs]
+27.3 +24.2 83 +38 +38 очень
душно
1008.6 999.1
12 17.06 СЗ 2 8000 м 9/5 400 м
[Cu med, cong Ac trans Cs]
+26.0 +23.5 86 +35 +35 очень
душно
1011.2 1001.6 +29.9 0.0
15 17.06 З 2 8000 м 9/4 300 м
[Cu med, cong Ac trans Cs]
+25.1 +23.3 90 +34 +34 очень
душно
1010.2 1000.6
18 17.06 штиль 0 9000 м 9/4 300 м
[Frnb Ac trans Ci sp]
+24.6 +22.9 90 +33 +33 очень
душно
1008.9 999.3
21 17.06 штиль 0 9000 м 8/6 300 м
[Frnb Ac trans Ci sp]
+24.3 +22.7 91 +32 +32 очень
душно
1009.1 999.5
00 18.06 ЮЗ 1 10 км 8/4 400 м
[Cu med, cong Ac trans Ci sp]
+28.4 +23.7 76 +39 +44 очень
душно
1010.1 1000.5 +24.2 0.0
03 18.06 ЮВ 2 10 км осадки на расстоянии 8/4 400 м
[Cu med, cong Ac trans Ci sp]
+30.5 +23.4 66 +41 +48 опасность
перегрева
1007.5 997.9
06 18.06 СВ 1 8000 м слаб. дождь 9/5 400 м
[Cu med, cong Ac As Ci sp]
+26.4 +25.4 94 +38 +41 очень
душно
1006.0 997.0 52
09 18.06 штиль 0 10 км слаб. дождь 9/4 420 м
[Cu med, cong Ac As Ci sp]
+27.4 +24.8 86 +39 +39 очень
душно
1008.0 998.4 0.0
12 18.06 штиль 0 10 км {дождь} 9/4 400 м
[Cu med, cong Ac As Ci sp]
+25.8 +24.6 93 +36 +36 очень
душно
1009.6 1000.0 +31.8 8
15 18.06 штиль 0 10 км 9/3 400 м
[Cu med, cong Ac trans Ci sp]
+25.4 +24.0 92 +35 +35 очень
душно
1008.9 999.3
18 18.06 ЮВ 3 9000 м слаб. дождь 9/4 300 м
[Frnb As op Cs]
+24.0 +22.8 93 +32 +32 очень
душно
1008.3 998.7 3
21 18.06 ЮВ 1 9000 м слаб. дождь 9/4 300 м
[Frnb As op Cs]
+23.9 +22.7 93 +31 +31 очень
душно
1009.3 999.8 9
00 19.06 В 1 10 км слаб. дождь 10/4 330 м
[Frnb As op Cs]
+25.0 +23.8 93 +34 +38 очень
душно
1010.5 1000.9 +23.8 0.3
03 19.06 ЮВ 2 10 км 9/4 360 м
[Cu Sc Ac As Ci sp]
+28.2 +21.0 65 +35 +42 очень
душно
1008.3 998.7
06 19.06 ЮВ 2 10 км осадки на расстоянии 9/4 <50 м
[Cb cap Ac trans Ci sp]
+30.3 +24.7 72 +43 +46 опасность
перегрева
1006.1 996.6
09 19.06 штиль 0 7000 м гроза, ливневой дождь 9/5 <50 м
[Cb cap Ac As Cs]
+25.2 +24.0 93 +35 +35 очень
душно
1007.4 997.9 12
12 19.06 С 1 10 км {гроза, дождь} 9/3 300 м
[Cu Sc Ac As Ci sp]
+24.8 +24.1 96 +34 +34 очень
душно
1009.0 999.4 +31.1 0.1
15 19.06 С 1 10 км 9/3 360 м
[Cu Sc Ac trans Ci sp]
+24.2 +23.2 94 +32 +32 очень
душно
1008.8 999.2
18 19.06 штиль 0 10 км 9/1 300 м
[Frnb Ac trans Ci fib]
+24.1 +23.6 97 +33 +33 очень
душно
1007.4 997.9
21 19.06 штиль 0 10 км 9/1 300 м
[Frnb Ac trans Ci fib]
+24.4 +23.9 97 +33 +33 очень
душно
1008.2 998.7
00 20.06 ЮВ 4 10 км 9/3 400 м
[Cu med, cong Ac trans Ci fib]
+27.6 +24.0 81 +38 +41 очень
душно
1009.2 999.7 +24.0 12
03 20.06 ЮВ 4 10 км 9/3 400 м
[Cu med, cong Ac trans Ci fib]
+30.6 +24.5 70 +43 +48 опасность
перегрева
1008.0 998.4
06 20.06 ЮВ 4 10 км {дождь} 9/4 400 м
[Cu med, cong Ac trans Ci sp]
+29.8 +23.9 71 +41 +43 опасность
перегрева
1006.4 996.9 0.0
09 20.06 З 1 10 км 9/3 400 м
[Cu med, cong Ac trans Ci sp]
+27.0 +23.7 82 +37 +37 очень
душно
1008.1 998.6
12 20.06 штиль 0 8000 м слаб. дождь 9/4 400 м
[Cu Sc Ac As Ci sp]
+26.4 +24.4 89 +37 +37 очень
душно
1010.6 1001.0 +31.6 0.3
15 20.06 штиль 0 8000 м 9/4 400 м
[Cu Sc Ac trans Cs]
+25.6 +23.8 90 +35 +35 очень
душно
1010.1 1000.5 0.3
18 20.06 штиль 0 8000 м слаб. дождь 9/4 360 м
[Frnb Ac trans Cs]
+25.1 +23.7 92 +34 +34 очень
душно
1008.6 999.1 0.5
21 20.06 штиль 0 5000 м слаб. дождь 10/3 300 м
[Frnb As trans Cs]
+24.5 +23.1 92 +33 +33 очень
душно
1009.2 999.7 2

 

Местоположение метеостанции Сентани (Индонезия): широта -2.58 долгота 140.52 высота над уровнем моря 99 м.

В архиве по умолчанию представлена погода в Сентани за последнюю неделю. Архивные данные за месяц целиком и за предыдущие месяцы, начиная с января 2011 года, Вы можете получить, выбрав интересующий диапазон дат из раскрывающегося списка и нажав кнопку "Ввод!".


*Определитесь, кто Вы:
робот инопланетянин человек

Внимание! Время в таблицах - всемирное. Для получения местного времени необходимо прибавить поправку, которая равна 7 ч.

Смотрите также архив погоды в соседних городах и на ближайших метеорологических станциях:

Погода в Джаяпуре (Индонезия) (21 км)
Погода в Сарми (Индонезия) (218 км)
Погода в Вамене (Индонезия) (241 км)
Погода в Танах Мерах (Индонезия) (392 км)
Погода в Коконао (Индонезия) (434 км)
Погода в Серуи (Индонезия) (483 км)
Погода в Энаротали (Индонезия) (484 км)
Погода в Биаке (Индонезия) (514 км)
Погода в Набире (Индонезия) (564 км)
Погода в Мерауке (Индонезия) (655 км)

Пояснения к столбцам:

Ветер - указаны скорость ветра в м/с - средняя за 10 мин, порывы в срок и между сроками (в фигурных скобках) и направление, откуда дует ветер: С - северный, СВ - северо-восточный, В - восточный, ЮВ - юго-восточный, Ю - южный, ЮЗ - юго-западный, З - западный, СЗ - северо-западный.
Видимость - горизонтальная дальность видимости в метрах или километрах. При видимости от 1 до 10 км при отсутствии осадков обычно наблюдается дымка, при ухудшении видимости до 1 км и менее - туман. В сухую погоду видимость может ухудшаться дымом, пылью или мглою.
Явления - указаны атмосферные явления, наблюдавшиеся в срок или в последний час перед сроком; фигурными скобками обозначены явления, наблюдавшиеся между сроками (за 1-3 часа до срока); квадратными скобками обозначены град или гололедные отложения с указанием их диаметра в мм.
Облачность - указаны через наклонную черту общая и нижняя облачность в баллах и высота нижней границы облаков в метрах; квадратными скобками обозначены формы облаков: Ci - перистые, Cs - перисто-слоистые, Cc - перисто-кучевые, Ac - высококучевые, As - высокослоистые, Sc - слоисто-кучевые, Ns - слоисто-дождевые, Cu - кучевые, Cb - кучево-дождевые. Подробнее классификацию облаков см. в Атласе облаков (PDF).
T - Температура воздуха - температура, измеренная на высоте 2 м над землей.
Td - Температура точки росы - температура, при понижении до которой содержащийся в воздухе водяной пар достигнет насыщения.
f - Относительная влажность воздуха - влажноcть воздуха, измеренная на высоте 2 м над землей.
Te - Эффективная температура - температура, которую ощущает одетый по сезону человек в тени. Характеристика душности погоды. При расчете учитывается влияние влажности воздуха и скорости ветра на теплоощущения человека.
Tes - Эффективная температура на солнце - температура, которую ощущает человек, с поправкой на солнечный нагрев. Характеристика знойности погоды. Зависит от высоты солнца над горизонтом, облачности и скорости ветра. Ночью, в пасмурную погоду, а также при ветре 12 м/с и более поправка равна нулю.
P - Атмосферное давление - приведенное к уровню моря атмосферное давление.
Po - Атмосферное давление - измеренное на уровне метеостанции атмосферное давление.
Tmin - Минимальная температура - минимум температуры воздуха на высоте 2 м над землей.
Tmax - Максимальная температура - максимум температуры воздуха на высоте 2 м над землей.
R - Количество осадков - Количество выпавших осадков за период времени, мм. При наведении курсора мыши на число - период времени, за который выпало указанное количество осадков.
R24 - Количество осадков - Количество выпавших осадков за 24 часа, мм.
S - Снежный покров - Высота снежного покрова, см. При наведении курсора мыши на число - состояние снежного покрова и степень покрытия местности в баллах.